[[{"header":{"parameterUnit":"m.s-1","parameterCategory":1,"la1":30.2991,"la2":30.254,"lo1":-89.0895,"lo2":-89.0444,"dy":0.0017,"dx":0.0017,"nx":28,"ny":28,"refTime":"2024-06-25T03:00:00:Z","depth":0,"parameterNumber":2,"parameterNumberName":"U-component_of_WINDS"},"data":[0,0,0,0,0,0,0,0,0,0,0,0,0,0,0,0,0,0,0,0,0,0,0,0,0,0,0,0,0,0,0,0,0,0,0,0,0,0,0,0,0,0,0,0,0,0,0,0,0,0,0,0,0,0,0,0,0,0,5.5866,5.5868,0,5.6079,5.6082,5.6084,5.6059,5.6056,5.6052,5.6049,5.6269,5.6278,5.6287,0,0,0,0,0,0,0,0,0,0,0,0,0,5.5435,5.5443,5.5866,5.5868,5.5871,5.6079,5.6082,5.6085,5.606,5.6055,5.6051,5.6047,5.6266,5.6277,5.6287,0,0,0,0,0,0,0,0,0,0,0,0,0,5.5633,5.5446,5.5865,5.5883,5.5887,5.6078,5.6082,5.6086,5.6061,5.6055,5.605,5.6045,5.6262,5.6276,5.6289,5.6476,0,0,5.633,5.6336,0,0,0,0,0,0,0,0,5.5622,5.5649,5.5878,5.5883,5.5887,5.6037,5.6011,5.6217,5.6062,5.5995,5.6049,5.6043,5.6196,5.6215,5.6266,5.6486,5.6496,5.6332,5.634,5.6346,5.635,0,0,0,0,0,0,0,5.5608,5.564,5.595,5.5881,5.5887,5.5881,5.5903,5.605,5.6122,5.6,5.5999,5.6025,5.6198,5.6253,5.6271,5.6499,5.6331,5.6343,5.6352,5.6357,5.6881,5.6886,0,0,0,0,0,0,5.559,5.5628,5.5943,5.5957,5.5739,5.5893,5.5918,5.5994,5.612,5.6134,5.6029,5.6023,5.6232,5.6255,5.6279,5.6504,5.6346,5.6358,5.6366,5.6875,5.6882,5.6888,0,0,0,0,0,0,5.5581,5.5618,5.5935,5.5792,5.5832,5.5906,5.5992,5.6001,5.6057,5.6142,5.6154,5.6072,5.6229,5.626,5.6427,5.6511,5.6364,5.6377,5.6868,5.6877,5.6885,5.6957,0,0,0,0,0,0,5.5569,5.5615,5.5687,5.5794,5.584,5.6079,5.5997,5.6009,5.608,5.6074,5.6186,5.6199,5.6228,5.6406,5.644,5.6527,5.6387,5.6861,5.6872,5.6882,5.6947,5.6967,5.6984,0,0,0,0,0,5.5553,5.57,5.5691,5.5729,5.5931,5.6084,5.611,5.6139,5.6087,5.616,5.6214,5.6196,5.6497,5.6424,5.6461,5.6554,5.6856,5.6869,5.6882,5.6939,5.6963,5.6984,0,0,0,0,0,0,5.5602,5.5714,5.5706,5.5891,5.5978,5.608,5.6172,5.6164,5.6269,5.6259,5.6291,5.6316,5.6484,5.6536,5.6452,5.6741,5.6669,5.669,5.67,5.6724,5.6742,5.6725,5.6399,0,0,0,0,0,5.5634,5.5749,5.5841,5.5995,5.604,5.6098,5.6166,5.6181,5.6273,5.631,5.6376,5.6466,5.658,5.6655,5.6766,5.6955,5.6978,5.7038,5.7056,5.707,5.7088,5.7189,5.7216,5.6931,5.6931,5.693,0,0,5.5702,5.5777,5.5848,5.6007,5.6076,5.6194,5.613,5.6257,5.6344,5.6329,5.649,5.6542,5.6644,5.6822,5.6904,5.6871,5.7172,5.7087,5.7098,5.7108,5.7206,5.7232,5.7256,5.694,5.6938,5.6937,0,0,5.5885,5.5954,5.6089,5.616,5.6265,5.6303,5.6335,5.6438,5.6472,5.6634,5.6624,5.6728,5.6926,5.6998,5.7061,5.727,5.7256,5.7305,5.74,5.7499,5.7521,5.7541,5.7613,5.7639,5.7322,5.7323,5.7323,0,5.5956,5.6132,5.616,5.6289,5.6358,5.6349,5.6485,5.6552,5.6689,5.6737,5.6697,5.6943,5.7012,5.7205,5.7256,5.7308,5.7345,5.7291,5.7515,5.7536,5.7555,5.7624,5.7651,5.7328,5.7327,5.7326,5.7326,0,5.6213,5.6336,5.6432,5.6562,5.6643,5.6775,5.6822,5.6901,5.6908,5.695,5.7114,5.7196,5.7321,5.7369,5.7379,5.7564,5.754,5.7508,5.7436,5.7587,5.7652,5.7679,5.7335,5.7333,5.7331,5.733,0,0,5.6433,5.6575,5.661,5.6668,5.6783,5.6878,5.7009,5.7131,5.7197,5.7291,5.74,5.7567,5.7537,5.7609,5.7626,5.7713,5.787,5.767,5.7673,5.7702,5.8077,5.8098,5.8129,5.7863,5.7868,5.7872,5.8068,0,5.6625,5.6856,5.6884,5.7089,5.7202,5.7194,5.7308,5.739,5.7433,5.7534,5.7581,5.7698,5.7651,5.7694,5.778,5.7833,5.7945,5.782,5.7963,5.7968,5.7936,5.8164,5.8187,5.8368,5.8094,5.8098,5.8101,0,5.6881,5.698,5.7196,5.7293,5.7341,5.7443,5.7556,5.7653,5.7746,5.7771,5.785,5.7855,5.799,5.7914,5.8099,5.8012,5.8073,5.8108,5.8116,5.8129,5.8042,5.818,5.8427,5.8453,5.8142,5.8139,5.8136,0,5.7016,5.7204,5.7357,5.7407,5.7525,5.7596,5.7649,5.7737,5.7807,5.7906,5.7952,5.8066,5.8128,5.8216,5.8252,5.8194,5.8434,5.8362,5.8457,5.8456,5.8506,5.8502,5.8763,5.8549,5.8549,5.8548,5.8548,0,5.7227,5.7358,5.7419,5.7513,5.766,5.7691,5.7835,5.7885,5.7963,5.8066,5.8067,5.8163,5.8206,5.8309,5.8338,5.8485,5.8514,5.8537,5.8543,5.8536,5.8532,5.8574,5.8562,5.8556,5.8554,5.8553,5.8551,0,5.7402,5.7448,5.7614,5.7711,5.7739,5.7842,5.7925,5.8016,5.8057,5.8187,5.8219,5.8284,5.8405,5.845,5.8598,5.8617,5.8787,5.8784,5.8755,5.8756,5.8847,5.8837,5.9143,5.9183,5.8945,5.8947,5.8949,0,5.7533,5.7634,5.7741,5.7809,5.7864,5.7975,5.8046,5.8081,5.8155,5.8267,5.8344,5.8464,5.8562,5.8755,5.8815,5.8928,5.8926,5.9026,5.8943,5.8932,5.8924,5.8917,5.8926,5.904,5.9043,5.9045,5.9046,0,5.7759,5.7776,5.7879,5.799,5.8074,5.8164,5.825,5.8306,5.8354,5.8437,5.856,5.8636,5.8786,5.8904,5.902,5.9073,5.9068,5.9072,5.9099,5.9092,5.907,5.908,5.8794,5.9064,5.9062,5.9061,5.906,5.9059,5.7914,5.8002,5.8091,5.8205,5.8273,5.8353,5.8442,5.8494,5.8597,5.872,5.8735,5.8866,5.8955,5.9109,5.9168,5.9271,5.9244,5.9284,5.9294,5.9303,5.9308,5.9055,5.9292,5.9292,5.9291,5.9291,5.9291,0,5.8138,5.8194,5.8298,5.8418,5.8508,5.8494,5.8588,5.8664,5.8779,5.8862,5.8958,5.9098,5.9213,5.9281,5.9396,5.9465,5.9465,5.9494,5.9488,5.95,5.9327,5.929,5.9492,5.9492,5.9492,5.9492,5.9492,5.9492,5.8264,5.8412,5.8439,5.862,5.8675,5.8803,5.8858,5.8932,5.8997,5.9154,5.9248,5.9292,5.9369,5.9489,5.9593,5.961,5.9651,5.9682,5.9697,5.9533,5.9513,5.9493,5.9458,5.9692,5.9692,5.9861,5.9862,5.9863]},{"header":{"parameterUnit":"m.s-1","parameterCategory":1,"la1":30.2991,"la2":30.254,"lo1":-89.0895,"lo2":-89.0444,"dy":0.0017,"dx":0.0017,"nx":28,"ny":28,"refTime":"2024-06-25T03:00:00:Z","depth":0,"parameterNumber":3,"parameterNumberName":"V-component_of_WINDS"},"data":[0,0,0,0,0,0,0,0,0,0,0,0,0,0,0,0,0,0,0,0,0,0,0,0,0,0,0,0,0,0,0,0,0,0,0,0,0,0,0,0,0,0,0,0,0,0,0,0,0,0,0,0,0,0,0,0,0,0,1.2916,1.2917,0,1.2948,1.2948,1.2949,1.2919,1.2918,1.2917,1.2916,1.2948,1.295,1.2952,0,0,0,0,0,0,0,0,0,0,0,0,0,1.283,1.2832,1.2916,1.2917,1.2917,1.2948,1.2948,1.2949,1.2919,1.2918,1.2916,1.2915,1.2948,1.295,1.2952,0,0,0,0,0,0,0,0,0,0,0,0,0,1.2865,1.2833,1.2916,1.2906,1.2906,1.2948,1.2948,1.2949,1.292,1.2918,1.2916,1.2914,1.2947,1.295,1.2953,1.3007,0,0,1.2962,1.2963,0,0,0,0,0,0,0,0,1.2863,1.2869,1.2907,1.2907,1.2906,1.2928,1.293,1.2968,1.292,1.2914,1.2916,1.2913,1.2943,1.2946,1.2956,1.3008,1.301,1.2962,1.2964,1.2965,1.2966,0,0,0,0,0,0,0,1.2861,1.2867,1.2929,1.2908,1.2907,1.29,1.2903,1.2937,1.2938,1.2915,1.2913,1.2917,1.2942,1.2953,1.2957,1.301,1.2962,1.2965,1.2967,1.2968,1.3108,1.311,0,0,0,0,0,0,1.286,1.2865,1.2928,1.293,1.288,1.2903,1.2906,1.2923,1.2938,1.2938,1.2918,1.2915,1.2949,1.2953,1.2958,1.3022,1.2965,1.2968,1.297,1.3106,1.3108,1.311,0,0,0,0,0,0,1.2858,1.2866,1.2927,1.2897,1.2904,1.2906,1.2925,1.2924,1.2935,1.294,1.2941,1.2929,1.2948,1.2953,1.2995,1.3023,1.2969,1.2972,1.3104,1.3107,1.3109,1.3151,0,0,0,0,0,0,1.2856,1.2865,1.2886,1.2898,1.2906,1.2963,1.2927,1.2926,1.294,1.2937,1.2951,1.2951,1.2947,1.299,1.2998,1.3026,1.2974,1.3101,1.3105,1.3108,1.3147,1.3155,1.3161,0,0,0,0,0,1.2853,1.2896,1.2887,1.2895,1.2932,1.2965,1.297,1.2963,1.2943,1.2963,1.2967,1.2951,1.3018,1.2995,1.3003,1.3032,1.3099,1.3104,1.3108,1.3144,1.3153,1.3161,0,0,0,0,0,0,1.2888,1.2898,1.2888,1.2936,1.295,1.296,1.2986,1.2974,1.2994,1.299,1.2981,1.2985,1.3028,1.3034,1.3008,1.3085,1.3055,1.3061,1.308,1.3089,1.3096,1.3094,1.2977,0,0,0,0,0,1.2902,1.2928,1.2935,1.2977,1.2985,1.2984,1.2998,1.2992,1.3006,1.3012,1.3018,1.3032,1.3056,1.3073,1.3095,1.3147,1.315,1.3171,1.3178,1.3184,1.319,1.3217,1.3227,1.3125,1.3125,1.3124,0,0,1.293,1.2938,1.2956,1.2985,1.2994,1.3022,1.2989,1.302,1.304,1.3016,1.3056,1.3061,1.3076,1.3123,1.3143,1.3129,1.3218,1.319,1.3194,1.3197,1.3223,1.3233,1.3241,1.3128,1.3127,1.3127,0,0,1.2996,1.3005,1.3041,1.3051,1.3066,1.3066,1.3074,1.3086,1.3088,1.3127,1.311,1.3134,1.3176,1.3187,1.3198,1.3267,1.3253,1.3275,1.3313,1.334,1.3348,1.3355,1.338,1.3389,1.328,1.328,1.328,0,1.3029,1.307,1.3061,1.3093,1.3106,1.3085,1.3122,1.3132,1.3154,1.3164,1.3147,1.3199,1.3207,1.3256,1.3273,1.3283,1.3292,1.3274,1.3347,1.3354,1.3361,1.3384,1.3394,1.3283,1.3282,1.3282,1.3282,0,1.311,1.3138,1.3165,1.3187,1.3203,1.3237,1.3233,1.3251,1.3243,1.3244,1.3284,1.3293,1.3317,1.3328,1.3321,1.3376,1.3366,1.3348,1.3319,1.3373,1.3395,1.3404,1.3286,1.3285,1.3285,1.3284,0,0,1.32,1.3216,1.3226,1.3235,1.325,1.3271,1.3304,1.3327,1.3342,1.3357,1.3385,1.342,1.3403,1.3416,1.341,1.3433,1.3487,1.3413,1.3413,1.3426,1.3548,1.3562,1.3573,1.3478,1.3479,1.3481,1.3547,0,1.3266,1.3323,1.3316,1.3371,1.3397,1.3377,1.3405,1.3417,1.3419,1.3441,1.3442,1.3467,1.3443,1.3451,1.3473,1.3476,1.3512,1.3471,1.3503,1.3504,1.3501,1.3584,1.3599,1.3661,1.3556,1.3557,1.3558,0,1.3352,1.337,1.3427,1.3437,1.3448,1.3473,1.3494,1.3515,1.3528,1.3527,1.3541,1.353,1.3562,1.3531,1.3576,1.3548,1.3561,1.3564,1.3566,1.357,1.3535,1.359,1.3681,1.3691,1.3571,1.357,1.3569,0,1.3412,1.3451,1.349,1.3498,1.3511,1.353,1.3536,1.3547,1.3561,1.3578,1.3588,1.3609,1.362,1.3637,1.3632,1.361,1.3678,1.3646,1.3678,1.3678,1.3694,1.3693,1.3789,1.3701,1.3701,1.3701,1.3701,0,1.3488,1.3523,1.3517,1.3541,1.3581,1.3572,1.3611,1.3614,1.3624,1.3648,1.3632,1.3655,1.3647,1.367,1.3666,1.3703,1.3709,1.3709,1.3708,1.3711,1.3711,1.372,1.3715,1.3703,1.3703,1.3702,1.3702,0,1.3562,1.356,1.3601,1.3609,1.3612,1.3641,1.3648,1.367,1.367,1.3701,1.3707,1.3707,1.3733,1.3729,1.3757,1.3755,1.3801,1.3795,1.3797,1.3796,1.3828,1.3826,1.3933,1.3947,1.385,1.3851,1.3852,0,1.3611,1.3638,1.3649,1.3664,1.3672,1.3696,1.371,1.3702,1.3717,1.3734,1.3754,1.3778,1.3797,1.3839,1.3841,1.3862,1.3856,1.3892,1.386,1.3862,1.3857,1.3856,1.3859,1.3899,1.39,1.3901,1.3902,0,1.3698,1.3695,1.3716,1.3737,1.3754,1.377,1.3784,1.3797,1.379,1.3808,1.3834,1.3849,1.3877,1.3901,1.3921,1.3927,1.3914,1.3912,1.3921,1.3925,1.3925,1.3926,1.3816,1.391,1.3909,1.3909,1.3908,1.3908,1.3761,1.3784,1.3795,1.3819,1.3829,1.3842,1.3864,1.3866,1.3887,1.391,1.3904,1.3933,1.3944,1.397,1.3978,1.4,1.3987,1.4,1.4003,1.4006,1.401,1.3921,1.4004,1.4004,1.4003,1.4003,1.4003,0,1.3847,1.3853,1.3875,1.3895,1.3914,1.3899,1.3914,1.393,1.3956,1.3968,1.3987,1.4016,1.4039,1.4043,1.4064,1.4082,1.4076,1.4088,1.4087,1.4088,1.4021,1.4011,1.4092,1.4092,1.4092,1.4092,1.4092,1.4092,1.3894,1.3932,1.3931,1.3973,1.3979,1.4007,1.4017,1.4029,1.4038,1.4072,1.4091,1.4093,1.4101,1.4123,1.4143,1.4144,1.4153,1.4167,1.4165,1.4102,1.4093,1.4085,1.4076,1.4169,1.4169,1.4231,1.4232,1.4232]}]]